カタログに戻る

USA 176

運用中軍事GEO
NORAD 28158·PAYLOAD·🇺🇸 United States

打ち上げ Feb 14, 2004 から Cape Canaveral Space Force Station

Loading…

TLE

最新Source: Space-Track

元期: Sep 14, 2026, 06:40 UTC

1 28158U 04004A   26257.27837098 -.00000247  00000-0  00000-0 0  9992
2 28158  12.1695  25.3776 0009872 359.4518   9.9222  0.99467892 33836

AllMySatでUSA 176をリアルタイム追跡

Download on the App Store